Location: PSU-Greenbush Astrophysical Observatory
(37.5140°N, 94.9880°W)
Time: 16:01:11
(UTC-06:00)

Altair - Pass Details

Date: 25 January 2020
Orbit: 1502 x 1682 km, 47.2° (Epoch: 19 February)

Event Time Altitude Azimuth Distance (km) Brightness Sun altitude
Rises 09:40:03 0° 252° (WSW) 4,874 9.9 20.5°
Reaches altitude 10° 09:43:13 10° 255° (WSW) 3,906 9.4 20.9°
Maximum altitude 09:53:14 65° 337° (NNW) 1,814 8.0 22.3°
Drops below altitude 10° 10:03:21 10° 59° (ENE) 3,939 9.8 23.5°
Sets 10:06:34 0° 63° (ENE) 4,918 10.3 23.9°
